OpenBCM V1.13 (Linux)

Packet Radio Mailbox

DB0FHN

[JN59NK Nuernberg]

 Login: GUEST





  
LU9DCE > KEP      28.02.19 20:34l 252 Lines 12358 Bytes #999 (0) @ WW
BID : 19396_LU9DCE
Read: DF7EAV DK3UZ GUEST
Subj: TLE 28 02
Path: DB0FHN<DB0BLO<DB0ERF<IZ3LSV<IW8PGT<CX2SA<EA2RCF<LU9DCE
Sent: 190228/1801Z 19396@LU9DCE.TOR.BA.ARG.SOAM LinBPQ6.0.18

            __    _  _  ___  ____   ___  ____    ____  ____  ____
           (  )  / )( \/ _ \(    \ / __)(  __)  (  _ \(  _ \/ ___)
           / (_/\) \/ (\__  )) D (( (__  ) _)    ) _ ( ) _ (\___ \
           \____/\____/(___/(____/ \___)(____)  (____/(____/(____/
               ESTACION DE PACKET RADIO - BUENOS AIRES (GF05OM)
                   BOLETINES INFORMATIVOS PROGRAMADOS (BIP)
                  SOPORTE TECNICO - HELLOCODELINUX@GMAIL.COM

+----------------------------------------------------------------------------+
OSCAR 7
1  7530U 74089B   19058.92774656 -.00000022 +00000-0 +14258-3 0  9990
2  7530 101.7294 027.7897 0011965 199.7680 164.7544 12.53636888026406
OSCAR 11 (UoSAT 2)
1 14781U 84021B   19059.52358743  .00000077  00000-0  15645-4 0  9996
2 14781  97.6230  89.3834 0007606 330.6225  29.4561 14.83066133882432
OSCAR 19 (LUSAT)
1 20442U 90005G   19058.78334942  .00000011  00000-0  20094-4 0  9990
2 20442  98.6379   1.0374 0012785 113.9960 246.2563 14.32918310520493
EYESAT A
1 22825U 93061C   19058.88226728 -.00000002  00000-0  17096-4 0  9994
2 22825  98.8945  45.0413 0007848 328.2841  31.7867 14.30052016326113
ITAMSAT
1 22826U 93061D   19059.53928024  .00000007  00000-0  20718-4 0  9995
2 22826  98.8886  45.7177 0008141 313.9948  46.0562 14.30385131326408
RADIO ROSTO
1 23439U 94085A   19058.84859360 -.00000043 +00000-0 -28888-4 0  9990
2 23439 064.8167 295.3777 0148706 134.4628 300.7798 11.27567924995392
JAS 2
1 24278U 96046B   19058.63401933 -.00000028 +00000-0 +55659-5 0  9996
2 24278 098.5199 227.2022 0350652 167.9287 193.0535 13.53089510112537
TECHSAT 1B
1 25397U 98043D   19059.41879488 -.00000018  00000-0  11348-4 0  9994
2 25397  98.6785   0.9629 0001714  38.5007 321.6294 14.23660829 72189
ISS (ZARYA)
1 25544U 98067A   19059.58113039  .00000585  00000-0  16781-4 0  9999
2 25544  51.6423 181.2243 0003698  63.9072  32.5537 15.52745983158386
PCSAT
1 26931U 01043C   19058.82595415 -.00000041 +00000-0 +15995-4 0  9990
2 26931 067.0506 289.7667 0005339 272.1708 087.8782 14.30533438909045
SAUDISAT 1C
1 27607U 02058C   19058.53048898 -.00000026  00000-0  17227-4 0  9997
2 27607  64.5557  29.4496 0082208 277.6677  81.5096 14.75522886870633
CUTE-1
1 27844U 03031E   19059.54779466  .00000046  00000-0  40340-4 0  9999
2 27844  98.6868  69.3943 0009653 356.5998   3.5112 14.22162107812632
CUBESAT XI 4
1 27848U 03031J   19058.94566747 +.00000032 +00000-0 +34388-4 0  9992
2 27848 098.6948 069.2754 0009796 009.5010 350.6351 14.21759371812378
MOZHAYETS 4
1 27939U 03042A   19059.39875909  .00000025  00000-0  12981-4 0  9995
2 27939  98.0203 197.4855 0014098  61.3750 298.8876 14.66756564824379
CUBESAT XI 5
1 28895U 05043F   19059.37518864  .00000088  00000-0  25782-4 0  9994
2 28895  97.9400 206.0029 0016252 344.4644  15.6057 14.63633597711344
CUTE-1.7+APD II
1 32785U 08021C   19058.88528723  .00000183  00000-0  25418-4 0  9998
2 32785  97.5485  63.8386 0011557 270.7296  89.2598 14.88255213587203
DELFI C3
1 32789U 08021G   19058.91776789 +.00000663 +00000-0 +48703-4 0  9998
2 32789 097.4795 111.8582 0013484 139.4959 220.7275 15.06677494590185
SEEDS
1 32791U 08021J   19059.55914048  .00000347  00000-0  40627-4 0  9990
2 32791  97.5304  70.3210 0012000 241.6004 118.4006 14.90742192587701
YUBELEINY
1 32953U 08025A   19059.54245694  .00000020  00000-0  75656-4 0  9995
2 32953  82.5032 213.2440 0019208  12.9043 347.2536 12.43087827488629
PRISM (HITOMI)
1 33493U 09002B   19058.74215587 -.00000115  00000-0 -44513-5 0  9996
2 33493  98.1234 335.4973 0014660 186.1103 173.9941 14.96522960548557
KKS-1 (KISEKI)
1 33499U 09002H   19058.92850722 +.00000089 +00000-0 +21220-4 0  9995
2 33499 098.3548 254.0560 0008890 191.6676 168.4327 14.75409637542468
SWISSCUBE
1 35932U 09051B   19059.45648854  .00000114  00000-0  36697-4 0  9996
2 35932  98.5734 222.2803 0008483 138.5780 221.6061 14.56247869500739
BEESAT
1 35933U 09051C   19059.39767362  .00000105  00000-0  34644-4 0  9996
2 35933  98.5766 223.9211 0006510 148.6799 211.4786 14.56341722500832
ITUPSAT 1
1 35935U 09051E   19059.39195238  .00000056  00000-0  24040-4 0  9999
2 35935  98.5879 224.1600 0008834 147.7660 212.4077 14.55506549500598
XIWANG-1 (HOPE-1)
1 36122U 09072B   19058.69283533 -.00000057  00000-0 -38733-4 0  9996
2 36122 100.0731  66.2945 0006785 239.6803 120.3629 13.16348141442271
TISAT 1
1 36799U 10035E   19059.42484880  .00000496  00000-0  56159-4 0  9994
2 36799  98.1378 208.0341 0013604  88.7591 271.5185 14.91013587468334
JUGNU
1 37839U 11058B   19058.84184257 +.00000304 +00000-0 +19879-4 0  9992
2 37839 019.9610 286.9840 0018924 184.9573 263.5513 14.12642504381451
SRMSAT
1 37841U 11058D   19058.93878748 +.00000303 +00000-0 +21501-4 0  9994
2 37841 019.9730 340.8789 0011925 060.8842 000.7104 14.10625005380949
M-CUBED/EXP-1 PRIME
1 37855U 11061F   19059.52734343  .00000848  00000-0  50535-4 0  9994
2 37855 101.7279 258.4974 0174397  43.2527 318.2228 15.05163153400202
HORYU 2
1 38340U 12025D   19058.64608685  .00000148  00000-0  29720-4 0  9991
2 38340  98.3435  93.8232 0012753 116.0339 244.2184 14.75671694364783
STRAND 1
1 39090U 13009E   19059.55462335  .00000013  00000-0  19764-4 0  9996
2 39090  98.4988 267.2850 0008047 254.7443 105.2853 14.35072350314593
SOMP
1 39134U 13015E   19058.69492353 +.00001454 +00000-0 +76596-4 0  9995
2 39134 064.8642 019.9592 0020346 321.7382 038.2300 15.19845606323344
BEESAT 3
1 39135U 13015F   19059.54261120  .00000930  00000-0  56338-4 0  9997
2 39135  64.8706  33.9980 0009893 282.7394  77.2626 15.17229122323538
BEESAT 2
1 39136U 13015G   19058.94548778 +.00001046 +00000-0 +63084-4 0  9993
2 39136 064.8700 039.4103 0010977 288.7364 071.2570 15.16663223322982
CUBEBUG 1
1 39153U 13018D   19059.26354945  .00000183  00000-0  30869-4 0  9998
2 39153  97.9753 158.0490 0016755 191.9310 168.1507 14.80517537315477
ZACUBE
1 39417U 13066B   19059.51557091  .00000238  00000-0  36231-4 0  9999
2 39417  97.5696  79.1707 0059836  36.4731 324.0536 14.81060683284738
TRITON 1
1 39427U 13066M   19058.88392406 +.00000148 +00000-0 +31496-4 0  9994
2 39427 097.6651 043.1858 0114355 159.6107 200.9720 14.67784262281893
GOMX 1
1 39430U 13066Q   19059.42945104  .00000099  00000-0  27350-4 0  9997
2 39430  97.7319  23.3366 0149836 241.7960 116.8036 14.59201179280521
HUMSAT D
1 39433U 13066T   19059.43509550  .00000378  00000-0  42303-4 0  9997
2 39433  97.5697 111.3598 0029545 310.2231  49.6404 14.92091891286638
CUBEBUG 2
1 39440U 13066AA  19058.83026413 +.00000203 +00000-0 +35074-4 0  9994
2 39440 097.6008 063.8266 0081850 085.2629 275.7923 14.75797793282429
FUNCUBE 1
1 39444U 13066AE  19058.63118615  .00000252  00000-0  37351-4 0  9996
2 39444  97.5687  80.1669 0058897  33.7908 326.7037 14.81867346283486
UWE-3
1 39446U 13066AG  19058.55045076  .00000195  00000-0  32472-4 0  9994
2 39446  97.5840  70.4320 0071440  63.3594 297.4913 14.78332745282846
SPROUT
1 39770U 14029E   19059.22716771  .00000495  00000-0  61112-4 0  9992
2 39770  97.8788 163.3058 0010217  90.0541 270.1758 14.87190149258415
UNISAT 6
1 40012U 14033C   19059.56472526  .00000159  00000-0  30943-4 0  9997
2 40012  97.7742 290.8088 0059807  92.9795 267.8260 14.73931191252469
DUCHIFAT 1
1 40021U 14033M   19058.78091278  .00000347  00000-0  41351-4 0  9995
2 40021  97.9220 343.0326 0014267  58.8322 301.4292 14.90531415255025
QB50P1
1 40025U 14033R   19059.55197315  .00000221  00000-0  29529-4 0  9998
2 40025  97.9067 339.4168 0013822  64.5999 295.6646 14.88872933254937
CHUBUSAT 1
1 40300U 14070C   19059.19709505  .00000473  00000-0  23686-4 0  9992
2 40300  97.3368 136.1289 0021385  83.8462 301.6169 15.21925287239210
NUDT-PHONESAT
1 40900U 15049B   19059.50050773  .00001340  00000-0  61161-4 0  9990
2 40900  97.4403  69.9400 0012156 204.2510 281.5447 15.22309192190891
ZDPS 2A
1 40901U 15049C   19059.57186998  .00000448  00000-0  25690-4 0  9992
2 40901  97.4611  66.9996 0012159 220.7028 261.7003 15.17520602190534
ZDPS 2B
1 40902U 15049D   19059.52217634  .00000467  00000-0  26757-4 0  9996
2 40902  97.4532  64.5939 0012414 218.3564 299.3322 15.17296825190505
XW-2A
1 40903U 15049E   19059.43781828  .00001228  00000-0  31378-4 0  9999
2 40903  97.3534 101.5107 0013795 176.3661 297.8714 15.41402091193265
KAITUO 1A
1 40904U 15049F   19059.46615966  .00000395  00000-0  24478-4 0  9999
2 40904  97.4659  63.3799 0013327 225.2961 290.0734 15.15256222190308
OBJECT G
1 40905U 15049G   19059.52765993  .00000519  00000-0  31992-4 0  9990
2 40905  97.4682  61.1316 0014440 218.7679 257.0681 15.14192671190205
XW-2C
1 40906U 15049H   19059.54698946  .00000633  00000-0  36831-4 0  9990
2 40906  97.4662  63.4714 0013566 216.3275 259.8568 15.15522047190316
XW-2D
1 40907U 15049J   19059.40462767  .00000710  00000-0  40693-4 0  9993
2 40907  97.4643  63.0103 0012931 213.2893 256.6742 15.15698190190302
LILACSAT 2
1 40908U 15049K   19059.40382409  .00000525  00000-0  32735-4 0  9990
2 40908  97.4765  62.0221 0014602 219.8004 250.1756 15.13711787190121
XW-2F
1 40910U 15049M   19059.40155527  .00000906  00000-0  49091-4 0  9998
2 40910  97.4623  64.7868 0013913 206.5897 262.0338 15.17052080190294
XW-2B
1 40911U 15049N   19059.36586664  .00000302  00000-0  19337-4 0  9994
2 40911  97.4666  63.5921 0012927 214.0979 253.2388 15.15629545190198
KAITUO 1B
1 40912U 15049P   19059.40096365  .00000872  00000-0  44432-4 0  9990
2 40912  97.4514  68.1978 0014610 190.4124 275.5145 15.19331324190562
TIANWANG 1C (TW-1C)
1 40926U 15051B   19059.38888762  .00007317  00000-0  11746-3 0  9997
2 40926  97.1527 105.7971 0010416  69.0491  54.3309 15.53281384193024
